When you browse on this site, cookies collect data to enhance your experience and personalize the content and advertising you see.
Visit our Privacy Policy to learn more. By continuing to use the site, you agree to this use of cookies and data.
  • In Latvia
  • List of Countries
  • For 7 days
  • Water Temperature
  • Satellite Maps
  • Weather Map
  • Weather Widgets
  • user-avatar
    Login

    Hourly Weather Kloten

    Today, 18 July, Thursday

    Time Temperature Precipitation Wind Pressure Humidity
    00:00 +16°C° 0 mm 0 mps 720 mmHg 74%
    01:00 +16°C° 0 mm 0 mps 719 mmHg 72%
    02:00 +15°C° 0 mm 0 mps 719 mmHg 74%
    03:00 +15°C° 0 mm 0 mps 719 mmHg 76%
    04:00 +14°C° 0 mm 0 mps 719 mmHg 79%
    05:00 +15°C° 0 mm 0 mps 719 mmHg 77%
    06:00 +16°C° 0 mm 0 mps 719 mmHg 75%
    07:00 +17°C° 0 mm 0 mps 719 mmHg 73%
    08:00 +21°C° 0 mm 1 mps 720 mmHg 64%
    09:00 +23°C° 0 mm 2 mps 720 mmHg 56%
    10:00 +25°C° 0 mm 2 mps 721 mmHg 48%
    11:00 +26°C° 0 mm 2 mps 720 mmHg 44%
    12:00 +27°C° 0 mm 3 mps 720 mmHg 40%
    13:00 +28°C° 0 mm 3 mps 720 mmHg 36%
    14:00 +28°C° 0 mm 3 mps 720 mmHg 38%
    15:00 +27°C° 0 mm 3 mps 720 mmHg 41%
    16:00 +27°C° 0 mm 2 mps 721 mmHg 43%
    17:00 +26°C° 0 mm 2 mps 720 mmHg 50%
    18:00 +24°C° 0 mm 1 mps 720 mmHg 57%
    19:00 +23°C° 0 mm 1 mps 720 mmHg 64%
    20:00 +22°C° 0 mm 1 mps 721 mmHg 67%
    21:00 +20°C° 0 mm 1 mps 721 mmHg 71%
    22:00 +19°C° 0 mm 1 mps 721 mmHg 74%
    23:00 +18°C° 0.1 mm 1 mps 721 mmHg 77%

    Tomorrow, 19 July, Friday

    Time Temperature Precipitation Wind Pressure Humidity
    00:00 +18°C° 0.1 mm 1 mps 721 mmHg 80%
    01:00 +16°C° 0.1 mm 1 mps 721 mmHg 83%
    02:00 +16°C° 0 mm 1 mps 721 mmHg 84%
    03:00 +15°C° 0 mm 0 mps 721 mmHg 84%
    04:00 +14°C° 0 mm 0 mps 721 mmHg 85%
    05:00 +15°C° 0 mm 0 mps 722 mmHg 84%
    06:00 +16°C° 0 mm 0 mps 722 mmHg 83%
    07:00 +17°C° 0 mm 0 mps 722 mmHg 82%
    08:00 +19°C° 0 mm 0 mps 722 mmHg 74%
    09:00 +22°C° 0 mm 0 mps 722 mmHg 65%
    10:00 +26°C° 0 mm 1 mps 722 mmHg 57%
    11:00 +27°C° 0 mm 1 mps 722 mmHg 53%
    12:00 +28°C° 0 mm 1 mps 722 mmHg 48%
    13:00 +29°C° 0 mm 1 mps 722 mmHg 44%
    14:00 +29°C° 0 mm 2 mps 722 mmHg 44%
    15:00 +29°C° 0 mm 2 mps 722 mmHg 44%
    16:00 +29°C° 0 mm 2 mps 722 mmHg 44%
    17:00 +27°C° 0 mm 2 mps 722 mmHg 52%
    18:00 +26°C° 0 mm 1 mps 722 mmHg 61%
    19:00 +25°C° 0 mm 1 mps 722 mmHg 69%
    20:00 +23°C° 0 mm 1 mps 722 mmHg 75%
    21:00 +21°C° 0 mm 1 mps 722 mmHg 80%
    22:00 +17°C° 0 mm 0 mps 722 mmHg 85%
    23:00 +17°C° 0 mm 0 mps 722 mmHg 87%

    Day after tomorrow, 20 July, Saturday

    Time Temperature Precipitation Wind Pressure Humidity
    00:00 +16°C° 0 mm 0 mps 722 mmHg 89%
    01:00 +15°C° 0 mm 0 mps 722 mmHg 91%
    02:00 +15°C° 0 mm 0 mps 722 mmHg 91%
    03:00 +15°C° 0 mm 0 mps 722 mmHg 92%
    04:00 +15°C° 0 mm 0 mps 722 mmHg 92%
    05:00 +16°C° 0 mm 0 mps 722 mmHg 88%
    06:00 +17°C° 0 mm 0 mps 722 mmHg 85%
    07:00 +18°C° 0 mm 0 mps 722 mmHg 81%
    08:00 +21°C° 0 mm 0 mps 722 mmHg 72%
    09:00 +24°C° 0 mm 0 mps 723 mmHg 62%
    10:00 +27°C° 0 mm 0 mps 723 mmHg 53%
    11:00 +30°C° 0 mm 1 mps 723 mmHg 47%
    12:00 +31°C° 0 mm 2 mps 723 mmHg 41%
    13:00 +33°C° 0 mm 3 mps 723 mmHg 36%
    14:00 +33°C° 0 mm 3 mps 723 mmHg 36%
    15:00 +33°C° 0 mm 3 mps 723 mmHg 36%
    16:00 +33°C° 0 mm 4 mps 723 mmHg 37%
    17:00 +30°C° 0 mm 3 mps 723 mmHg 46%
    18:00 +28°C° 0 mm 2 mps 723 mmHg 55%
    19:00 +26°C° 0 mm 1 mps 723 mmHg 64%
    20:00 +25°C° 0.1 mm 1 mps 723 mmHg 68%
    21:00 +23°C° 0.1 mm 1 mps 724 mmHg 72%
    22:00 +21°C° 0.1 mm 1 mps 724 mmHg 75%
    23:00 +21°C° 0.1 mm 1 mps 724 mmHg 76%

    21 July, Sunday

    Time Temperature Precipitation Wind Pressure Humidity
    00:00 +21°C° 0.1 mm 1 mps 724 mmHg 77%
    01:00 +21°C° 0.1 mm 1 mps 724 mmHg 78%
    02:00 +20°C° 0.3 mm 1 mps 724 mmHg 82%
    03:00 +19°C° 0.3 mm 1 mps 724 mmHg 85%
    04:00 +18°C° 0.3 mm 1 mps 724 mmHg 88%
    05:00 +19°C° 0.4 mm 1 mps 725 mmHg 89%
    06:00 +20°C° 0.4 mm 1 mps 725 mmHg 89%
    07:00 +21°C° 0.4 mm 1 mps 725 mmHg 89%
    08:00 +23°C° 0.1 mm 1 mps 726 mmHg 79%
    09:00 +25°C° 0.1 mm 1 mps 726 mmHg 70%
    10:00 +27°C° 0.1 mm 1 mps 727 mmHg 60%
    11:00 +28°C° 0.1 mm 2 mps 727 mmHg 57%
    12:00 +29°C° 0.1 mm 2 mps 727 mmHg 54%
    13:00 +30°C° 0.1 mm 2 mps 727 mmHg 51%
    14:00 +30°C° 0.1 mm 2 mps 727 mmHg 51%
    15:00 +30°C° 0.1 mm 2 mps 727 mmHg 50%
    16:00 +30°C° 0.1 mm 2 mps 727 mmHg 50%
    17:00 +29°C° 0.1 mm 2 mps 727 mmHg 58%
    18:00 +27°C° 0.1 mm 1 mps 727 mmHg 66%
    19:00 +26°C° 0.1 mm 1 mps 727 mmHg 73%
    20:00 +24°C° 0 mm 1 mps 727 mmHg 77%
    21:00 +23°C° 0 mm 1 mps 727 mmHg 80%
    22:00 +21°C° 0 mm 1 mps 727 mmHg 83%
    23:00 +19°C° 0 mm 0 mps 727 mmHg 85%

    22 July, Monday

    Time Temperature Precipitation Wind Pressure Humidity
    00:00 +18°C° 0 mm 0 mps 727 mmHg 88%
    01:00 +17°C° 0 mm 0 mps 727 mmHg 91%
    02:00 +17°C° 0 mm 0 mps 726 mmHg 92%
    03:00 +17°C° 0 mm 0 mps 726 mmHg 92%
    04:00 +16°C° 0 mm 0 mps 726 mmHg 93%
    05:00 +17°C° 0 mm 0 mps 726 mmHg 91%
    06:00 +18°C° 0 mm 0 mps 727 mmHg 88%
    07:00 +19°C° 0 mm 0 mps 727 mmHg 86%
    08:00 +22°C° 0 mm 0 mps 727 mmHg 77%
    09:00 +25°C° 0 mm 0 mps 727 mmHg 68%
    10:00 +29°C° 0 mm 1 mps 727 mmHg 59%
    11:00 +31°C° 0 mm 1 mps 727 mmHg 54%
    12:00 +32°C° 0 mm 1 mps 727 mmHg 49%
    13:00 +33°C° 0 mm 1 mps 727 mmHg 44%
    14:00 +34°C° 0 mm 1 mps 727 mmHg 43%
    15:00 +34°C° 0 mm 1 mps 727 mmHg 42%
    16:00 +34°C° 0 mm 1 mps 727 mmHg 42%
    17:00 +32°C° 0 mm 1 mps 726 mmHg 51%
    18:00 +30°C° 0 mm 1 mps 726 mmHg 60%
    19:00 +29°C° 0 mm 2 mps 726 mmHg 69%
    20:00 +27°C° 0 mm 2 mps 726 mmHg 76%
    21:00 +25°C° 0 mm 1 mps 726 mmHg 83%
    22:00 +23°C° 0 mm 1 mps 726 mmHg 90%
    23:00 +22°C° 0 mm 1 mps 726 mmHg 90%

    23 July, Tuesday

    Time Temperature Precipitation Wind Pressure Humidity
    00:00 +22°C° 0 mm 1 mps 726 mmHg 91%
    01:00 +19°C° 0 mm 0 mps 726 mmHg 92%
    02:00 +19°C° 0 mm 0 mps 726 mmHg 92%
    03:00 +18°C° 0 mm 0 mps 725 mmHg 92%
    04:00 +18°C° 0 mm 0 mps 725 mmHg 93%
    05:00 +19°C° 0 mm 0 mps 725 mmHg 90%
    06:00 +20°C° 0 mm 0 mps 725 mmHg 88%
    07:00 +21°C° 0 mm 0 mps 725 mmHg 86%
    08:00 +25°C° 0 mm 1 mps 725 mmHg 77%
    09:00 +27°C° 0 mm 1 mps 725 mmHg 69%
    10:00 +29°C° 0 mm 1 mps 725 mmHg 60%
    11:00 +31°C° 0 mm 1 mps 725 mmHg 55%
    12:00 +32°C° 0 mm 2 mps 725 mmHg 50%
    13:00 +34°C° 0 mm 2 mps 725 mmHg 44%
    14:00 +34°C° 0 mm 2 mps 725 mmHg 44%
    15:00 +35°C° 0 mm 2 mps 724 mmHg 43%
    16:00 +35°C° 0 mm 3 mps 724 mmHg 43%
    17:00 +33°C° 0 mm 3 mps 724 mmHg 51%
    18:00 +30°C° 0 mm 3 mps 724 mmHg 60%
    19:00 +28°C° 0 mm 3 mps 723 mmHg 68%
    20:00 +26°C° 0 mm 2 mps 723 mmHg 75%
    21:00 +24°C° 0 mm 1 mps 723 mmHg 82%
    22:00 +22°C° 0 mm 1 mps 723 mmHg 89%
    23:00 +22°C° 0 mm 1 mps 723 mmHg 90%
    Show more